ELY5112 LCLK-LLBG

Flight info

Callsign ELY5112
Flight time 0h 44m
Altitude 25000
Route EMEDA DCT TUZIB L189 ZUKKO
Aircraft B738/M-SDE2E3FGHIRWXY/LB1

Departure

Time 2026-05-07 12:01
Airport Larnaca International Airport (LCLK)

Arrival

Time 2026-05-07 12:45
Airport Ben Gurion International Airport (LLBG)
Time Latitude Longitude Altitude Speed Heading
2026-05-07 11:32 34.86986 33.61097 19 ft 0 kts 225°
2026-05-07 11:47 34.86997 33.61110 19 ft 2 kts 225°
2026-05-07 11:47 34.87008 33.61124 22 ft 2 kts 225°
2026-05-07 11:47 34.87020 33.61139 23 ft 2 kts 224°
2026-05-07 11:48 34.87032 33.61153 21 ft 2 kts 223°
2026-05-07 11:48 34.87045 33.61166 22 ft 2 kts 211°
2026-05-07 11:48 34.87059 33.61163 21 ft 2 kts 135°
2026-05-07 11:48 34.87070 33.61150 20 ft 1 kts 135°
2026-05-07 11:49 34.87072 33.61148 19 ft 0 kts 135°
2026-05-07 11:52 34.87070 33.61150 20 ft 3 kts 136°
2026-05-07 11:52 34.87043 33.61182 21 ft 7 kts 135°
2026-05-07 11:52 34.87004 33.61228 19 ft 10 kts 135°
2026-05-07 11:52 34.86950 33.61295 21 ft 12 kts 133°
2026-05-07 11:53 34.86957 33.61381 20 ft 12 kts 47°
2026-05-07 11:53 34.87012 33.61449 19 ft 11 kts 45°
2026-05-07 11:53 34.87067 33.61515 19 ft 11 kts 45°
2026-05-07 11:53 34.87120 33.61579 21 ft 11 kts 45°
2026-05-07 11:54 34.87180 33.61652 19 ft 13 kts 45°
2026-05-07 11:54 34.87247 33.61737 19 ft 14 kts 45°
2026-05-07 11:54 34.87313 33.61818 19 ft 13 kts 45°
2026-05-07 11:54 34.87333 33.61843 19 ft 13 kts 45°
2026-05-07 11:55 34.87396 33.61920 19 ft 13 kts 45°
2026-05-07 11:55 34.87457 33.61994 19 ft 12 kts 45°
2026-05-07 11:55 34.87516 33.62068 19 ft 12 kts 52°
2026-05-07 11:55 34.87502 33.62139 21 ft 9 kts 124°
2026-05-07 11:56 34.87511 33.62206 22 ft 9 kts 42°
2026-05-07 11:56 34.87556 33.62255 20 ft 9 kts 46°
2026-05-07 11:56 34.87597 33.62307 19 ft 8 kts 45°
2026-05-07 11:56 34.87638 33.62355 19 ft 8 kts 44°
2026-05-07 11:57 34.87696 33.62426 19 ft 17 kts 45°
2026-05-07 11:57 34.87807 33.62560 19 ft 28 kts 45°
2026-05-07 11:57 34.87948 33.62732 20 ft 28 kts 45°
2026-05-07 11:57 34.88080 33.62894 19 ft 26 kts 45°
2026-05-07 11:58 34.88207 33.63049 20 ft 25 kts 46°
2026-05-07 11:58 34.88320 33.63193 19 ft 23 kts 45°
2026-05-07 11:58 34.88422 33.63312 19 ft 13 kts 47°
2026-05-07 11:58 34.88424 33.63406 21 ft 13 kts 136°
2026-05-07 11:59 34.88402 33.63432 19 ft 0 kts 135°
2026-05-07 11:59 34.88372 33.63467 20 ft 10 kts 135°
2026-05-07 11:59 34.88301 33.63519 19 ft 13 kts 189°
2026-05-07 11:59 34.88232 33.63443 18 ft 13 kts 225°
2026-05-07 12:00 34.88218 33.63426 19 ft 0 kts 225°
2026-05-07 12:00 34.88079 33.63255 19 ft 66 kts 225°
2026-05-07 12:00 34.87582 33.62648 20 ft 134 kts 225°
2026-05-07 12:00 34.86793 33.61682 115 ft 181 kts 224°
2026-05-07 12:01 34.85871 33.60564 795 ft 192 kts 224°
2026-05-07 12:01 34.84943 33.59425 1827 ft 185 kts 225°
2026-05-07 12:01 34.83994 33.58263 2392 ft 207 kts 226°
2026-05-07 12:01 34.82912 33.56940 2626 ft 233 kts 226°
2026-05-07 12:02 34.81573 33.55755 3037 ft 247 kts 199°
2026-05-07 12:02 34.79857 33.55664 3588 ft 252 kts 163°
2026-05-07 12:02 34.78323 33.56709 4142 ft 262 kts 140°
2026-05-07 12:02 34.76925 33.58231 4671 ft 275 kts 134°
2026-05-07 12:03 34.75512 33.59851 5389 ft 281 kts 135°
2026-05-07 12:03 34.74089 33.61419 6202 ft 284 kts 136°
2026-05-07 12:03 34.72604 33.63022 6988 ft 287 kts 137°
2026-05-07 12:03 34.71103 33.64629 7776 ft 289 kts 137°
2026-05-07 12:04 34.69588 33.66249 8562 ft 291 kts 137°
2026-05-07 12:04 34.68059 33.67883 9347 ft 294 kts 137°
2026-05-07 12:04 34.66516 33.69532 10119 ft 297 kts 137°
2026-05-07 12:04 34.64941 33.71216 10565 ft 311 kts 137°
2026-05-07 12:05 34.63255 33.73018 10719 ft 335 kts 138°
2026-05-07 12:05 34.61230 33.74576 10826 ft 358 kts 160°
2026-05-07 12:05 34.58828 33.75466 11169 ft 372 kts 164°
2026-05-07 12:05 34.56334 33.76414 11726 ft 378 kts 160°
2026-05-07 12:06 34.53880 33.77597 12389 ft 381 kts 158°
2026-05-07 12:06 34.51412 33.78819 13039 ft 385 kts 159°
2026-05-07 12:06 34.48897 33.79994 13670 ft 390 kts 161°
2026-05-07 12:06 34.46308 33.80787 14229 ft 393 kts 175°
2026-05-07 12:07 34.43566 33.80967 14850 ft 396 kts 181°
2026-05-07 12:07 34.40803 33.80963 15461 ft 400 kts 182°
2026-05-07 12:07 34.38003 33.80972 16057 ft 404 kts 181°
2026-05-07 12:07 34.35182 33.81104 16633 ft 410 kts 179°
2026-05-07 12:08 34.32306 33.81363 17204 ft 415 kts 178°
2026-05-07 12:08 34.29419 33.81656 17777 ft 420 kts 178°
2026-05-07 12:08 34.26496 33.81940 18343 ft 424 kts 178°
2026-05-07 12:08 34.23591 33.82199 18818 ft 428 kts 179°
2026-05-07 12:09 34.20610 33.82444 19362 ft 430 kts 179°
2026-05-07 12:09 34.17724 33.82670 19892 ft 432 kts 179°
2026-05-07 12:09 34.14618 33.82907 20442 ft 434 kts 179°
2026-05-07 12:09 34.11588 33.83138 20948 ft 437 kts 180°
2026-05-07 12:10 34.08547 33.83371 21453 ft 440 kts 180°
2026-05-07 12:10 34.05475 33.83608 21937 ft 443 kts 180°
2026-05-07 12:10 34.03428 33.83765 22267 ft 445 kts 180°
2026-05-07 12:10 33.99510 33.84069 22903 ft 447 kts 180°
2026-05-07 12:11 33.96390 33.84311 23128 ft 454 kts 180°
2026-05-07 12:11 33.93222 33.84556 23117 ft 463 kts 180°
2026-05-07 12:11 33.89964 33.84808 23123 ft 469 kts 180°
2026-05-07 12:11 33.86704 33.85063 23123 ft 469 kts 180°
2026-05-07 12:12 33.83446 33.85318 23125 ft 468 kts 180°
2026-05-07 12:12 33.80188 33.85572 23125 ft 468 kts 180°
2026-05-07 12:12 33.76945 33.85824 23123 ft 467 kts 180°
2026-05-07 12:12 33.73971 33.86054 23127 ft 466 kts 180°
2026-05-07 12:13 33.70779 33.86301 23122 ft 466 kts 180°
2026-05-07 12:13 33.67600 33.86547 23122 ft 465 kts 180°
2026-05-07 12:13 33.64371 33.86796 23123 ft 465 kts 180°
2026-05-07 12:13 33.61142 33.87045 23130 ft 465 kts 180°
2026-05-07 12:14 33.57922 33.87294 23113 ft 465 kts 179°
2026-05-07 12:14 33.54687 33.87543 23120 ft 464 kts 179°
2026-05-07 12:14 33.51461 33.87791 23121 ft 465 kts 179°
2026-05-07 12:14 33.48239 33.88040 23077 ft 462 kts 179°
2026-05-07 12:15 33.45071 33.88286 22777 ft 450 kts 179°
2026-05-07 12:15 33.43023 33.88446 22593 ft 442 kts 179°
2026-05-07 12:15 33.40687 33.88627 22392 ft 438 kts 179°
2026-05-07 12:15 33.39700 33.88703 22303 ft 437 kts 179°
2026-05-07 12:16 33.37955 33.88837 22153 ft 437 kts 179°
2026-05-07 12:16 33.34925 33.89067 21896 ft 437 kts 179°
2026-05-07 12:16 33.31896 33.89297 21643 ft 436 kts 179°
2026-05-07 12:16 33.28873 33.89528 21398 ft 435 kts 179°
2026-05-07 12:17 33.25853 33.89759 21140 ft 434 kts 179°
2026-05-07 12:17 33.22849 33.89989 20890 ft 432 kts 179°
2026-05-07 12:17 33.19852 33.90219 20645 ft 431 kts 179°
2026-05-07 12:17 33.16859 33.90444 20399 ft 429 kts 179°
2026-05-07 12:18 33.13887 33.90664 20148 ft 427 kts 179°
2026-05-07 12:18 33.11928 33.90808 19993 ft 426 kts 179°
2026-05-07 12:18 33.08975 33.91025 19753 ft 424 kts 179°
2026-05-07 12:18 33.06035 33.91241 19516 ft 423 kts 179°
2026-05-07 12:19 33.03096 33.91457 19277 ft 421 kts 179°
2026-05-07 12:19 33.00179 33.91672 19048 ft 419 kts 179°
2026-05-07 12:19 32.97277 33.91886 18808 ft 418 kts 179°
2026-05-07 12:19 32.94406 33.92097 18572 ft 416 kts 178°
2026-05-07 12:20 32.91525 33.92310 18353 ft 415 kts 178°
2026-05-07 12:20 32.88614 33.92524 18078 ft 413 kts 178°
2026-05-07 12:20 32.85751 33.92735 17813 ft 411 kts 178°
2026-05-07 12:20 32.82902 33.92944 17551 ft 410 kts 178°
2026-05-07 12:21 32.80058 33.93153 17295 ft 408 kts 178°
2026-05-07 12:21 32.77271 33.93358 17035 ft 406 kts 178°
2026-05-07 12:21 32.74468 33.93564 16528 ft 402 kts 178°
2026-05-07 12:21 32.71694 33.93767 16034 ft 397 kts 178°
2026-05-07 12:22 32.68933 33.93970 15454 ft 395 kts 178°
2026-05-07 12:22 32.66204 33.94169 14944 ft 391 kts 178°
2026-05-07 12:22 32.63493 33.94367 14431 ft 388 kts 178°
2026-05-07 12:22 32.60807 33.94564 13916 ft 385 kts 178°
2026-05-07 12:23 32.58141 33.94832 13318 ft 384 kts 170°
2026-05-07 12:23 32.55784 33.96014 12943 ft 381 kts 150°
2026-05-07 12:23 32.53681 33.97850 12588 ft 376 kts 137°
2026-05-07 12:23 32.51926 34.00096 12369 ft 368 kts 131°
2026-05-07 12:24 32.50325 34.02314 12086 ft 364 kts 132°
2026-05-07 12:24 32.48644 34.04492 11819 ft 368 kts 135°
2026-05-07 12:24 32.46841 34.06662 11543 ft 368 kts 135°
2026-05-07 12:24 32.45066 34.08804 11251 ft 360 kts 135°
2026-05-07 12:25 32.43385 34.10951 10985 ft 352 kts 129°
2026-05-07 12:25 32.42301 34.13472 10670 ft 347 kts 102°
2026-05-07 12:25 32.41914 34.16227 10507 ft 336 kts 98°
2026-05-07 12:25 32.41555 34.18942 10236 ft 331 kts 101°
2026-05-07 12:26 32.41090 34.21591 9997 ft 325 kts 103°
2026-05-07 12:26 32.40608 34.24123 9971 ft 312 kts 103°
2026-05-07 12:26 32.40147 34.26577 9938 ft 299 kts 102°
2026-05-07 12:26 32.39700 34.29013 9370 ft 306 kts 102°
2026-05-07 12:27 32.39263 34.31426 9098 ft 302 kts 102°
2026-05-07 12:27 32.38829 34.33835 8946 ft 294 kts 102°
2026-05-07 12:27 32.38406 34.36171 8779 ft 287 kts 102°
2026-05-07 12:27 32.38126 34.37716 8712 ft 282 kts 102°
2026-05-07 12:28 32.37946 34.38710 8659 ft 279 kts 102°
2026-05-07 12:28 32.37543 34.40935 8545 ft 276 kts 102°
2026-05-07 12:28 32.37173 34.42976 8450 ft 275 kts 102°
2026-05-07 12:29 32.36772 34.45186 8337 ft 276 kts 102°
2026-05-07 12:29 32.36442 34.47007 8255 ft 277 kts 102°
2026-05-07 12:29 32.36035 34.49244 8144 ft 279 kts 102°
2026-05-07 12:29 32.35741 34.50857 8065 ft 280 kts 102°
2026-05-07 12:30 32.35276 34.53102 7950 ft 282 kts 109°
2026-05-07 12:30 32.34544 34.55227 7976 ft 275 kts 114°
2026-05-07 12:30 32.33751 34.57270 7967 ft 274 kts 115°
2026-05-07 12:30 32.32962 34.59335 7975 ft 278 kts 114°
2026-05-07 12:31 32.32187 34.61419 7981 ft 281 kts 114°
2026-05-07 12:31 32.31412 34.63533 7973 ft 280 kts 114°
2026-05-07 12:31 32.30648 34.65635 7977 ft 278 kts 114°
2026-05-07 12:31 32.29884 34.67739 7966 ft 278 kts 114°
2026-05-07 12:32 32.29123 34.69832 7964 ft 277 kts 114°
2026-05-07 12:32 32.28341 34.71982 7964 ft 277 kts 114°
2026-05-07 12:32 32.27596 34.74027 7960 ft 276 kts 114°
2026-05-07 12:32 32.26835 34.76111 7957 ft 276 kts 114°
2026-05-07 12:33 32.25321 34.80283 7930 ft 278 kts 112°
2026-05-07 12:33 32.24727 34.82357 7731 ft 286 kts 108°
2026-05-07 12:33 32.24159 34.84634 7582 ft 287 kts 107°
2026-05-07 12:34 32.23615 34.86842 7406 ft 284 kts 107°
2026-05-07 12:34 32.23066 34.89020 7348 ft 270 kts 108°
2026-05-07 12:34 32.22533 34.91100 7239 ft 257 kts 108°
2026-05-07 12:34 32.22038 34.93014 7161 ft 242 kts 108°
2026-05-07 12:35 32.21555 34.94862 7072 ft 228 kts 108°
2026-05-07 12:35 32.21102 34.96610 6951 ft 217 kts 109°
2026-05-07 12:35 32.20656 34.98258 6843 ft 204 kts 114°
2026-05-07 12:35 32.19807 34.99516 6540 ft 198 kts 153°
2026-05-07 12:36 32.18524 35.00007 6296 ft 192 kts 169°
2026-05-07 12:36 32.17672 35.00255 6156 ft 189 kts 167°
2026-05-07 12:36 32.16014 35.00783 5954 ft 180 kts 166°
2026-05-07 12:36 32.14809 35.01170 5859 ft 182 kts 166°
2026-05-07 12:37 32.13574 35.01564 5744 ft 186 kts 166°
2026-05-07 12:37 32.12312 35.01966 5628 ft 189 kts 166°
2026-05-07 12:37 32.11036 35.02372 5492 ft 189 kts 166°
2026-05-07 12:37 32.09767 35.02776 5369 ft 189 kts 166°
2026-05-07 12:38 32.08516 35.03171 5250 ft 188 kts 165°
2026-05-07 12:38 32.07251 35.03572 5135 ft 188 kts 165°
2026-05-07 12:38 32.05984 35.03973 5006 ft 188 kts 165°
2026-05-07 12:38 32.04718 35.04372 4894 ft 189 kts 165°
2026-05-07 12:39 32.03442 35.04775 4772 ft 190 kts 165°
2026-05-07 12:39 32.02158 35.05184 4633 ft 192 kts 165°
2026-05-07 12:39 32.00866 35.05589 4530 ft 192 kts 165°
2026-05-07 12:39 31.99568 35.05994 4389 ft 193 kts 165°
2026-05-07 12:40 31.98269 35.06402 4244 ft 191 kts 165°
2026-05-07 12:40 31.96984 35.06805 4139 ft 192 kts 165°
2026-05-07 12:40 31.95691 35.07212 4015 ft 192 kts 165°
2026-05-07 12:40 31.94397 35.07307 3826 ft 189 kts 198°
2026-05-07 12:41 31.93393 35.06409 3380 ft 183 kts 245°
2026-05-07 12:41 31.92827 35.05064 3240 ft 186 kts 257°
2026-05-07 12:41 31.92935 35.03630 3098 ft 171 kts 300°
2026-05-07 12:41 31.93465 35.02358 2857 ft 172 kts 300°
2026-05-07 12:42 31.93967 35.01187 2572 ft 170 kts 302°
2026-05-07 12:42 31.94537 35.00005 2349 ft 162 kts 304°
2026-05-07 12:42 31.95101 34.98895 2127 ft 158 kts 306°
2026-05-07 12:42 31.95689 34.97804 1935 ft 158 kts 307°
2026-05-07 12:43 31.96259 34.96693 1699 ft 157 kts 305°
2026-05-07 12:43 31.96811 34.95604 1469 ft 154 kts 306°
2026-05-07 12:43 31.97370 34.94519 1215 ft 155 kts 303°
2026-05-07 12:43 31.97898 34.93448 949 ft 152 kts 302°
2026-05-07 12:44 31.98432 34.92383 815 ft 150 kts 304°
2026-05-07 12:44 31.98958 34.91344 628 ft 149 kts 304°
2026-05-07 12:44 31.99517 34.90322 414 ft 148 kts 304°
2026-05-07 12:44 32.00062 34.89288 166 ft 147 kts 303°
2026-05-07 12:45 32.00571 34.88317 118 ft 126 kts 300°
2026-05-07 12:45 32.00939 34.87601 119 ft 82 kts 301°
2026-05-07 12:45 32.01057 34.87297 118 ft 23 kts 277°
2026-05-07 12:45 32.01062 34.87189 119 ft 9 kts 271°
2026-05-07 12:46 32.01062 34.87168 119 ft 5 kts 271°
2026-05-07 12:46 32.01063 34.87114 119 ft 6 kts 268°
2026-05-07 12:46 32.01032 34.87059 119 ft 9 kts 198°
2026-05-07 12:46 32.00989 34.87087 119 ft 4 kts 126°
2026-05-07 12:47 32.00973 34.87111 117 ft 4 kts 136°
2026-05-07 12:47 32.00908 34.87111 118 ft 12 kts 181°
2026-05-07 12:47 32.00857 34.87179 119 ft 11 kts 120°
2026-05-07 12:47 32.00817 34.87259 117 ft 11 kts 120°
2026-05-07 12:48 32.00778 34.87337 117 ft 11 kts 122°
2026-05-07 12:48 32.00736 34.87411 118 ft 12 kts 122°
2026-05-07 12:48 32.00694 34.87492 116 ft 11 kts 122°
2026-05-07 12:48 32.00653 34.87571 117 ft 11 kts 121°
2026-05-07 12:49 32.00613 34.87647 119 ft 11 kts 127°
2026-05-07 12:49 32.00547 34.87681 116 ft 10 kts 166°
2026-05-07 12:49 32.00477 34.87700 116 ft 10 kts 167°
2026-05-07 12:49 32.00412 34.87718 117 ft 9 kts 169°
2026-05-07 12:50 32.00369 34.87681 118 ft 9 kts 264°
2026-05-07 12:50 32.00371 34.87630 119 ft 0 kts 272°
2026-05-07 12:50 32.00371 34.87628 119 ft 0 kts 271°